Weather History for Indianapolis, IN

Change the Weather History Date:

Saturday, November 19, 2011

  Actual Average (KEYE) Record (KEYE)
Temperature  
Mean Temperature 50 °F 43 °F  
Max Temperature 58 °F 50 °F 61 °F (1999)
Min Temperature 41 °F 35 °F 14 °F (2014)
Degree Days  
Heating Degree Days 16 22  
Month to date heating degree days 354  
Since 1 July heating degree days 746  
Cooling Degree Days 0 0  
Month to date cooling degree days 0  
Year to date cooling degree days 1058  
Moisture  
Dew Point 35 °F    
Average Humidity 58    
Maximum Humidity 79    
Minimum Humidity 42    
Precipitation  
Precipitation 0.01 in 0.13 in 0.28 in (1999)
Month to date precipitation 2.35  
Year to date precipitation 36.36  
Sea Level Pressure  
Sea Level Pressure 30.00 in    
Wind  
Wind Speed 14 mph (South)    
Max Wind Speed 20 mph    
Max Gust Speed 28 mph    
Visibility 10 miles    
Events Rain    
T = Trace of Precipitation, MM = Missing Value Source: NWS Daily Summary

Daily Weather History Graph

Daily Weather History Graph

Search for Another Location

Airport:

Trip Planner

Search our weather history database for the weather conditions in past years. The results will help you decide how hot, cold, wet, or windy it might be!

Date:

Astronomy

Nov. 19, 2011 Rise Set
Actual Time 7:34 AM EST 5:25 PM EST
Civil Twilight 7:05 AM EST 5:55 PM EST
Nautical Twilight 6:32 AM EST 6:28 PM EST
Astronomical Twilight 6:00 AM EST 7:00 PM EST
Moon 12:54 AM EST (11/19) 1:43 PM EST (11/19)
Length of Visible Light 10h 49m
Length of Day
9h 51m
Last Quarter, 38% of the Moon is Illuminated
Nov 19
Last Quarter
Nov 25
New
Dec 2
First Quarter
Dec 10
Full
Dec 17
Last Quarter

Hourly Weather History & Observations

Time (EST) Temp. Windchill Dew Point Humidity Pressure Visibility Wind Dir Wind Speed Gust Speed Precip Events Conditions
12:15 AM 41.7 °F 35.6 °F 22.3 °F 46% 30.05 in 10.0 mi South 10.4 mph - N/A   Clear
12:35 AM 42.1 °F 35.2 °F 22.8 °F 46% 30.06 in 10.0 mi South 12.7 mph - N/A   Scattered Clouds
12:55 AM 43.0 °F 36.0 °F 23.5 °F 46% 30.06 in 10.0 mi South 13.8 mph - N/A   Clear
1:15 AM 44.6 °F 36.6 °F 24.1 °F 44% 30.06 in 10.0 mi SSW 19.6 mph 23.0 mph N/A   Clear
1:35 AM 46.2 °F 39.0 °F 24.3 °F 42% 30.06 in 10.0 mi SSW 18.4 mph 25.3 mph N/A   Mostly Cloudy
1:55 AM 45.5 °F 38.6 °F 24.6 °F 44% 30.06 in 10.0 mi SSW 16.1 mph 19.6 mph N/A   Mostly Cloudy
2:15 AM 45.7 °F 39.1 °F 25.2 °F 45% 30.06 in 10.0 mi South 15.0 mph 23.0 mph N/A   Mostly Cloudy
2:35 AM 45.7 °F 39.5 °F 25.7 °F 46% 30.06 in 10.0 mi SSW 13.8 mph 20.7 mph N/A   Mostly Cloudy
2:55 AM 45.7 °F 39.8 °F 26.2 °F 47% 30.07 in 10.0 mi SSW 12.7 mph 19.6 mph N/A   Scattered Clouds
3:15 AM 45.7 °F 40.2 °F 27.1 °F 48% 30.08 in 10.0 mi SW 11.5 mph 17.3 mph N/A   Mostly Cloudy
3:35 AM 46.2 °F 40.5 °F 28.4 °F 50% 30.08 in 10.0 mi SSW 12.7 mph - N/A   Mostly Cloudy
4:15 AM 47.3 °F - 29.8 °F 51% 30.07 in 10.0 mi SSW 17.3 mph 21.9 mph N/A   Mostly Cloudy
4:35 AM 47.3 °F - 30.2 °F 52% 30.07 in 10.0 mi SSW 13.8 mph 24.2 mph N/A   Mostly Cloudy
4:55 AM 47.5 °F - 30.6 °F 52% 30.07 in 10.0 mi SSW 15.0 mph - N/A   Mostly Cloudy
5:15 AM 47.3 °F - 30.9 °F 53% 30.07 in 10.0 mi SSW 12.7 mph 19.6 mph N/A   Scattered Clouds
5:35 AM 47.7 °F - 31.5 °F 53% 30.07 in 10.0 mi SSW 12.7 mph 21.9 mph N/A   Mostly Cloudy
6:15 AM 47.8 °F - 32.0 °F 54% 30.06 in 10.0 mi SSW 13.8 mph 21.9 mph N/A   Overcast
6:35 AM 48.2 °F - 32.2 °F 54% 30.05 in 10.0 mi South 19.6 mph 24.2 mph N/A   Overcast
6:55 AM 46.8 °F - 32.0 °F 57% 30.05 in 10.0 mi South 11.5 mph 24.2 mph N/A   Overcast
7:15 AM 45.7 °F 39.5 °F 32.0 °F 59% 30.05 in 10.0 mi South 13.8 mph 18.4 mph N/A   Overcast
7:35 AM 45.7 °F 40.6 °F 32.0 °F 59% 30.05 in 10.0 mi South 10.4 mph - N/A   Overcast
7:55 AM 45.7 °F 39.1 °F 32.0 °F 59% 30.06 in 10.0 mi South 15.0 mph 19.6 mph N/A   Overcast
8:15 AM 45.9 °F 39.7 °F 32.0 °F 58% 30.06 in 10.0 mi South 13.8 mph 18.4 mph N/A   Overcast
8:35 AM 46.2 °F 40.1 °F 32.0 °F 58% 30.06 in 10.0 mi South 13.8 mph 19.6 mph N/A   Overcast
8:55 AM 46.0 °F 40.6 °F 32.0 °F 58% 30.06 in 10.0 mi South 11.5 mph - N/A   Overcast
9:15 AM 46.0 °F 39.9 °F 32.0 °F 58% 30.06 in 10.0 mi South 13.8 mph - N/A   Overcast
9:35 AM 46.6 °F - 32.0 °F 57% 30.06 in 10.0 mi South 12.7 mph - N/A   Overcast
9:55 AM 47.3 °F - 32.4 °F 56% 30.05 in 10.0 mi South 13.8 mph 20.7 mph N/A   Overcast
10:15 AM 47.7 °F - 32.7 °F 56% 30.05 in 10.0 mi South 15.0 mph 19.6 mph N/A   Overcast
10:35 AM 47.7 °F - 32.9 °F 57% 30.05 in 10.0 mi South 15.0 mph 23.0 mph N/A   Overcast
10:55 AM 47.5 °F - 33.4 °F 58% 30.05 in 10.0 mi South 13.8 mph 20.7 mph N/A   Overcast
11:15 AM 47.7 °F - 33.8 °F 59% 30.04 in 10.0 mi South 13.8 mph - N/A   Overcast
11:35 AM 44.8 °F 38.0 °F 36.9 °F 74% 30.04 in 5.0 mi South 15.0 mph 21.9 mph 0.01 in Rain Light Rain
11:55 AM 45.1 °F 38.4 °F 37.9 °F 76% 30.03 in 10.0 mi South 15.0 mph 21.9 mph 0.01 in   Drizzle
12:15 PM 45.0 °F 39.3 °F 38.7 °F 79% 30.01 in 10.0 mi South 11.5 mph 17.3 mph N/A Rain Light Rain
12:35 PM 45.9 °F 39.4 °F 38.3 °F 75% 30.00 in 10.0 mi South 15.0 mph - N/A   Overcast
12:55 PM 46.6 °F - 38.7 °F 74% 29.99 in 10.0 mi South 16.1 mph 23.0 mph N/A   Overcast
1:15 PM 47.3 °F - 39.9 °F 76% 29.99 in 10.0 mi South 15.0 mph 21.9 mph N/A   Overcast
1:35 PM 47.7 °F - 39.7 °F 74% 29.97 in 10.0 mi South 13.8 mph 19.6 mph N/A   Overcast
1:55 PM 49.1 °F - 40.3 °F 72% 29.96 in 10.0 mi South 15.0 mph 21.9 mph N/A   Mostly Cloudy
2:15 PM 49.3 °F - 40.5 °F 72% 29.95 in 10.0 mi South 13.8 mph 19.6 mph N/A   Mostly Cloudy
2:35 PM 50.2 °F - 40.5 °F 69% 29.94 in 10.0 mi South 12.7 mph 21.9 mph N/A   Mostly Cloudy
2:55 PM 52.3 °F - 41.2 °F 66% 29.94 in 10.0 mi South 12.7 mph 19.6 mph N/A   Overcast
3:15 PM 53.4 °F - 41.0 °F 63% 29.92 in 10.0 mi SSE 17.3 mph 24.2 mph N/A   Overcast
3:35 PM 53.8 °F - 41.2 °F 62% 29.91 in 10.0 mi South 16.1 mph - N/A   Overcast
3:55 PM 54.7 °F - 41.2 °F 60% 29.90 in 10.0 mi South 15.0 mph 23.0 mph N/A   Overcast
4:15 PM 55.0 °F - 41.0 °F 59% 29.90 in 10.0 mi South 15.0 mph 20.7 mph N/A   Overcast
4:35 PM 55.4 °F - 40.8 °F 58% 29.90 in 10.0 mi South 16.1 mph 19.6 mph N/A   Overcast
4:55 PM 55.9 °F - 41.0 °F 57% 29.90 in 10.0 mi South 15.0 mph 24.2 mph N/A   Overcast
5:15 PM 56.3 °F - 41.2 °F 57% 29.91 in 10.0 mi South 16.1 mph 23.0 mph N/A   Overcast
5:35 PM 56.8 °F - 41.5 °F 57% 29.91 in 10.0 mi South 19.6 mph 27.6 mph N/A   Overcast
5:55 PM 57.0 °F - 41.9 °F 57% 29.92 in 10.0 mi South 12.7 mph 20.7 mph N/A   Overcast
6:15 PM 57.4 °F - 42.1 °F 57% 29.92 in 10.0 mi South 18.4 mph 25.3 mph N/A   Overcast
6:35 PM 57.9 °F - 42.3 °F 56% 29.92 in 10.0 mi South 13.8 mph 24.2 mph N/A   Overcast
6:55 PM 57.9 °F - 42.8 °F 57% 29.92 in 10.0 mi South 12.7 mph 23.0 mph N/A   Overcast
7:15 PM 58.1 °F - 43.3 °F 58% 29.92 in 10.0 mi South 11.5 mph 17.3 mph N/A   Overcast
7:35 PM 57.6 °F - 43.3 °F 59% 29.93 in 10.0 mi SSW 11.5 mph - N/A   Overcast
8:15 PM 58.5 °F - 44.6 °F 60% 29.93 in 10.0 mi SSW 13.8 mph 18.4 mph N/A   Overcast
8:35 PM 58.5 °F - 44.8 °F 60% 29.94 in 10.0 mi SW 11.5 mph 16.1 mph N/A   Overcast
9:15 PM 58.5 °F - 45.5 °F 62% 29.94 in 10.0 mi SSW 10.4 mph - N/A   Overcast
9:35 PM 58.8 °F - 46.4 °F 63% 29.93 in 10.0 mi SSW 13.8 mph 18.4 mph N/A   Overcast
9:55 PM 60.3 °F - 47.7 °F 63% 29.93 in 10.0 mi SW 20.7 mph 26.5 mph N/A   Overcast
10:15 PM 61.0 °F - 48.2 °F 63% 29.94 in 10.0 mi SSW 18.4 mph 35.7 mph N/A   Overcast
10:35 PM 60.8 °F - 48.2 °F 63% 29.94 in 10.0 mi SW 21.9 mph 28.8 mph N/A   Overcast
10:55 PM 60.8 °F - 48.2 °F 63% 29.94 in 10.0 mi SSW 23.0 mph 29.9 mph N/A   Overcast
11:15 PM 60.6 °F - 48.2 °F 64% 29.95 in 10.0 mi SSW 23.0 mph 31.1 mph N/A   Overcast
11:35 PM 60.3 °F - 48.6 °F 65% 29.95 in 10.0 mi SSW 18.4 mph 28.8 mph N/A   Mostly Cloudy